Time,TemperatureF,DewpointF,PressureIn,WindDirection,WindDirectionDegrees,WindSpeedMPH,WindSpeedGustMPH,Humidity,HourlyPrecipIn,Conditions,Clouds,dailyrainin,SoftwareType,DateUTC
2013-06-22 00:02:00,75.0,25.7,30.54,East,90,9.0,17.0,16,0.00,,,0.09,meteohub,2013-06-22 06:02:00,
2013-06-22 00:07:00,75.0,25.7,30.54,East,90,9.0,15.0,16,0.00,,,0.09,meteohub,2013-06-22 06:07:00,
2013-06-22 00:12:00,75.2,24.4,30.54,SE,135,11.0,14.0,15,0.00,,,0.09,meteohub,2013-06-22 06:12:00,
2013-06-22 00:17:00,75.0,25.7,30.54,SE,135,8.0,16.0,16,0.00,,,0.09,meteohub,2013-06-22 06:17:00,
2013-06-22 00:22:00,74.8,25.7,30.54,SE,135,8.0,16.0,16,0.00,,,0.09,meteohub,2013-06-22 06:22:00,
2013-06-22 00:27:00,74.7,25.5,30.54,East,90,7.0,16.0,16,0.00,,,0.09,meteohub,2013-06-22 06:27:00,
2013-06-22 00:32:00,74.5,25.3,30.55,SE,135,8.0,13.0,16,0.00,,,0.09,meteohub,2013-06-22 06:32:00,
2013-06-22 00:37:00,74.3,25.2,30.54,SE,135,10.0,12.0,16,0.00,,,0.09,meteohub,2013-06-22 06:37:00,
2013-06-22 00:42:00,74.3,25.2,30.55,SE,135,9.0,12.0,16,0.00,,,0.09,meteohub,2013-06-22 06:42:00,
2013-06-22 00:47:00,74.1,25.0,30.55,South,180,10.0,11.0,16,0.00,,,0.09,meteohub,2013-06-22 06:47:00,
2013-06-22 00:52:00,74.1,25.0,30.55,SE,135,6.0,11.0,16,0.00,,,0.09,meteohub,2013-06-22 06:52:00,
2013-06-22 00:57:00,73.9,25.0,30.55,SSE,158,4.0,11.0,16,0.00,,,0.09,meteohub,2013-06-22 06:57:00,
2013-06-22 01:02:00,73.9,25.0,30.54,South,180,9.0,11.0,16,0.00,,,0.09,meteohub,2013-06-22 07:02:00,
2013-06-22 01:07:00,73.9,25.0,30.54,East,90,7.0,11.0,16,0.00,,,0.09,meteohub,2013-06-22 07:07:00,
2013-06-22 01:12:00,73.4,24.4,30.55,SE,135,6.0,11.0,16,0.00,,,0.09,meteohub,2013-06-22 07:12:00,
2013-06-22 01:17:00,73.2,19.4,30.55,SE,135,8.0,10.0,13,0.00,,,0.09,meteohub,2013-06-22 07:17:00,
2013-06-22 01:22:00,72.9,19.2,30.54,East,90,4.0,10.0,13,0.00,,,0.09,meteohub,2013-06-22 07:22:00,
2013-06-22 01:27:00,72.9,19.2,30.54,East,90,9.0,9.0,13,0.00,,,0.09,meteohub,2013-06-22 07:27:00,
2013-06-22 01:32:00,72.9,19.2,30.54,SE,135,8.0,10.0,13,0.00,,,0.09,meteohub,2013-06-22 07:32:00,
2013-06-22 01:37:00,72.5,18.9,30.54,SE,135,5.0,10.0,13,0.00,,,0.09,meteohub,2013-06-22 07:37:00,
2013-06-22 01:42:00,72.3,18.7,30.54,East,90,8.0,9.0,13,0.00,,,0.09,meteohub,2013-06-22 07:42:00,
2013-06-22 01:47:00,72.3,18.7,30.54,SE,135,7.0,9.0,13,0.00,,,0.09,meteohub,2013-06-22 07:47:00,
2013-06-22 01:52:00,72.1,18.5,30.54,SE,135,8.0,11.0,13,0.00,,,0.09,meteohub,2013-06-22 07:52:00,
2013-06-22 01:57:00,72.1,18.5,30.54,SE,135,7.0,11.0,13,0.00,,,0.09,meteohub,2013-06-22 07:57:00,
2013-06-22 02:02:00,72.1,18.5,30.54,East,90,7.0,11.0,13,0.00,,,0.09,meteohub,2013-06-22 08:02:00,
2013-06-22 02:07:00,72.1,18.5,30.54,East,90,7.0,9.0,13,0.00,,,0.09,meteohub,2013-06-22 08:07:00,
2013-06-22 02:12:00,71.6,18.1,30.54,East,90,5.0,8.0,13,0.00,,,0.09,meteohub,2013-06-22 08:12:00,
2013-06-22 02:17:00,71.6,18.1,30.54,East,90,4.0,8.0,13,0.00,,,0.09,meteohub,2013-06-22 08:17:00,
2013-06-22 02:22:00,71.4,19.8,30.54,South,180,4.0,8.0,14,0.00,,,0.09,meteohub,2013-06-22 08:22:00,
2013-06-22 02:27:00,71.6,18.1,30.54,ESE,113,4.0,8.0,13,0.00,,,0.09,meteohub,2013-06-22 08:27:00,
2013-06-22 02:32:00,71.4,19.8,30.54,SE,135,4.0,8.0,14,0.00,,,0.09,meteohub,2013-06-22 08:32:00,
2013-06-22 02:37:00,71.2,19.6,30.54,South,180,7.0,8.0,14,0.00,,,0.09,meteohub,2013-06-22 08:37:00,
2013-06-22 02:42:00,71.2,19.6,30.54,East,90,6.0,8.0,14,0.00,,,0.09,meteohub,2013-06-22 08:42:00,
2013-06-22 02:47:00,71.1,19.4,30.54,East,90,6.0,9.0,14,0.00,,,0.09,meteohub,2013-06-22 08:47:00,
2013-06-22 02:52:00,70.9,19.2,30.54,SE,135,4.0,9.0,14,0.00,,,0.09,meteohub,2013-06-22 08:52:00,
2013-06-22 02:57:00,70.7,19.2,30.54,South,180,7.0,9.0,14,0.00,,,0.09,meteohub,2013-06-22 08:57:00,
2013-06-22 03:02:00,70.7,19.2,30.54,SE,135,5.0,7.0,14,0.00,,,0.09,meteohub,2013-06-22 09:02:00,
2013-06-22 03:07:00,70.3,18.9,30.54,East,90,5.0,7.0,14,0.00,,,0.09,meteohub,2013-06-22 09:07:00,
2013-06-22 03:12:00,70.2,18.7,30.54,SE,135,4.0,7.0,14,0.00,,,0.09,meteohub,2013-06-22 09:12:00,
2013-06-22 03:17:00,70.3,18.9,30.54,SE,135,4.0,7.0,14,0.00,,,0.09,meteohub,2013-06-22 09:17:00,
2013-06-22 03:22:00,70.2,18.7,30.54,SE,135,4.0,7.0,14,0.00,,,0.09,meteohub,2013-06-22 09:22:00,
2013-06-22 03:27:00,70.2,18.7,30.55,East,90,4.0,9.0,14,0.00,,,0.09,meteohub,2013-06-22 09:27:00,
2013-06-22 03:32:00,70.3,18.9,30.54,East,90,7.0,9.0,14,0.00,,,0.09,meteohub,2013-06-22 09:32:00,
2013-06-22 03:37:00,70.5,19.0,30.55,East,90,8.0,9.0,14,0.00,,,0.09,meteohub,2013-06-22 09:37:00,
2013-06-22 03:42:00,70.7,19.2,30.54,East,90,7.0,9.0,14,0.00,,,0.09,meteohub,2013-06-22 09:42:00,
2013-06-22 03:47:00,70.7,19.2,30.54,East,90,4.0,10.0,14,0.00,,,0.09,meteohub,2013-06-22 09:47:00,
2013-06-22 03:52:00,70.5,19.0,30.55,East,90,5.0,10.0,14,0.00,,,0.09,meteohub,2013-06-22 09:52:00,
2013-06-22 03:57:00,70.2,18.7,30.55,East,90,7.0,10.0,14,0.00,,,0.09,meteohub,2013-06-22 09:57:00,
2013-06-22 04:02:00,70.0,18.5,30.55,SE,135,8.0,8.0,14,0.00,,,0.09,meteohub,2013-06-22 10:02:00,
2013-06-22 04:07:00,70.0,18.5,30.55,East,90,8.0,8.0,14,0.00,,,0.09,meteohub,2013-06-22 10:07:00,
2013-06-22 04:12:00,70.2,18.7,30.55,SE,135,10.0,11.0,14,0.00,,,0.09,meteohub,2013-06-22 10:12:00,
2013-06-22 04:18:00,69.8,18.5,30.55,SE,135,7.0,11.0,14,0.00,,,0.09,meteohub,2013-06-22 10:18:00,
2013-06-22 04:23:00,69.6,19.9,30.55,East,90,10.0,11.0,15,0.00,,,0.09,meteohub,2013-06-22 10:23:00,
2013-06-22 04:28:00,70.0,18.5,30.55,East,90,6.0,11.0,14,0.00,,,0.09,meteohub,2013-06-22 10:28:00,
2013-06-22 04:33:00,70.0,18.5,30.55,South,180,4.0,10.0,14,0.00,,,0.09,meteohub,2013-06-22 10:33:00,
2013-06-22 04:38:00,70.0,18.5,30.55,East,90,11.0,11.0,14,0.00,,,0.09,meteohub,2013-06-22 10:38:00,
2013-06-22 04:43:00,69.8,18.5,30.55,SE,135,11.0,11.0,14,0.00,,,0.09,meteohub,2013-06-22 10:43:00,
2013-06-22 04:48:00,69.8,18.5,30.55,East,90,11.0,11.0,14,0.00,,,0.09,meteohub,2013-06-22 10:48:00,
2013-06-22 04:53:00,69.8,18.5,30.55,East,90,8.0,11.0,14,0.00,,,0.09,meteohub,2013-06-22 10:53:00,
2013-06-22 04:58:00,69.4,19.8,30.55,East,90,8.0,11.0,15,0.00,,,0.09,meteohub,2013-06-22 10:58:00,
2013-06-22 05:03:00,69.3,19.6,30.55,East,90,8.0,11.0,15,0.00,,,0.09,meteohub,2013-06-22 11:03:00,
2013-06-22 05:08:00,69.1,19.4,30.55,East,90,11.0,12.0,15,0.00,,,0.09,meteohub,2013-06-22 11:08:00,
2013-06-22 05:13:00,69.4,19.8,30.55,East,90,10.0,12.0,15,0.00,,,0.09,meteohub,2013-06-22 11:13:00,
2013-06-22 05:18:00,69.3,19.6,30.55,SE,135,10.0,12.0,15,0.00,,,0.09,meteohub,2013-06-22 11:18:00,
2013-06-22 05:23:00,69.3,21.2,30.55,SE,135,10.0,12.0,16,0.00,,,0.09,meteohub,2013-06-22 11:23:00,
2013-06-22 05:28:00,69.3,19.6,30.56,East,90,7.0,11.0,15,0.00,,,0.09,meteohub,2013-06-22 11:28:00,
2013-06-22 05:33:00,68.9,20.8,30.56,East,90,9.0,11.0,16,0.00,,,0.09,meteohub,2013-06-22 11:33:00,
2013-06-22 05:38:00,68.7,19.2,30.56,East,90,9.0,11.0,15,0.00,,,0.09,meteohub,2013-06-22 11:38:00,
2013-06-22 05:43:00,68.9,20.8,30.56,SE,135,8.0,11.0,16,0.00,,,0.09,meteohub,2013-06-22 11:43:00,
2013-06-22 05:49:00,68.9,20.8,30.56,SE,135,8.0,11.0,16,0.00,,,0.09,meteohub,2013-06-22 11:49:00,
2013-06-22 05:54:00,68.7,20.7,30.57,SE,135,6.0,11.0,16,0.00,,,0.09,meteohub,2013-06-22 11:54:00,
2013-06-22 05:59:00,68.5,19.0,30.56,East,90,9.0,11.0,15,0.00,,,0.09,meteohub,2013-06-22 11:59:00,
2013-06-22 06:04:00,68.7,20.7,30.56,SE,135,7.0,9.0,16,0.00,,,0.09,meteohub,2013-06-22 12:04:00,
2013-06-22 06:09:00,68.5,20.5,30.56,NE,45,4.0,9.0,16,0.00,,,0.09,meteohub,2013-06-22 12:09:00,
2013-06-22 06:14:00,68.5,20.5,30.56,SE,135,8.0,9.0,16,0.00,,,0.09,meteohub,2013-06-22 12:14:00,
2013-06-22 06:19:00,68.7,20.7,30.56,East,90,9.0,9.0,16,0.00,,,0.09,meteohub,2013-06-22 12:19:00,
2013-06-22 06:24:00,68.9,20.8,30.57,SE,135,10.0,11.0,16,0.00,,,0.09,meteohub,2013-06-22 12:24:00,
2013-06-22 06:29:00,68.7,20.7,30.56,East,90,9.0,12.0,16,0.00,,,0.09,meteohub,2013-06-22 12:29:00,
2013-06-22 06:34:00,68.5,20.5,30.57,SE,135,7.0,12.0,16,0.00,,,0.09,meteohub,2013-06-22 12:34:00,
2013-06-22 06:39:00,68.5,20.5,30.57,SE,135,7.0,12.0,16,0.00,,,0.09,meteohub,2013-06-22 12:39:00,
2013-06-22 06:44:00,69.1,21.0,30.57,East,90,9.0,11.0,16,0.00,,,0.09,meteohub,2013-06-22 12:44:00,
2013-06-22 06:49:00,69.3,21.2,30.57,SE,135,8.0,11.0,16,0.00,,,0.09,meteohub,2013-06-22 12:49:00,
2013-06-22 06:54:00,69.8,20.1,30.57,South,180,8.0,11.0,15,0.00,,,0.09,meteohub,2013-06-22 12:54:00,
2013-06-22 06:59:00,70.0,20.1,30.57,SE,135,8.0,10.0,15,0.00,,,0.09,meteohub,2013-06-22 12:59:00,
2013-06-22 07:04:00,70.2,20.3,30.57,SE,135,8.0,10.0,15,0.00,,,0.09,meteohub,2013-06-22 13:04:00,
2013-06-22 07:09:00,70.7,20.8,30.57,South,180,7.0,10.0,15,0.00,,,0.09,meteohub,2013-06-22 13:09:00,
2013-06-22 07:14:00,71.2,21.2,30.57,SE,135,12.0,12.0,15,0.00,,,0.09,meteohub,2013-06-22 13:14:00,
2013-06-22 07:19:00,71.6,19.9,30.57,SE,135,10.0,11.0,14,0.00,,,0.09,meteohub,2013-06-22 13:19:00,
2013-06-22 07:25:00,72.0,20.1,30.57,SW,225,9.0,12.0,14,0.00,,,0.09,meteohub,2013-06-22 13:25:00,
2013-06-22 07:30:00,72.3,20.5,30.57,SE,135,11.0,12.0,14,0.00,,,0.09,meteohub,2013-06-22 13:30:00,
2013-06-22 07:35:00,72.5,18.9,30.57,SE,135,6.0,11.0,13,0.00,,,0.09,meteohub,2013-06-22 13:35:00,
2013-06-22 07:40:00,72.7,19.0,30.57,South,180,4.0,13.0,13,0.00,,,0.09,meteohub,2013-06-22 13:40:00,
2013-06-22 07:45:00,73.0,19.2,30.57,South,180,10.0,13.0,13,0.00,,,0.09,meteohub,2013-06-22 13:45:00,
2013-06-22 07:50:00,73.4,24.4,30.58,SW,225,6.0,13.0,16,0.00,,,0.09,meteohub,2013-06-22 13:50:00,
2013-06-22 07:55:00,73.6,24.6,30.57,SE,135,9.0,13.0,16,0.00,,,0.09,meteohub,2013-06-22 13:55:00,
2013-06-22 08:00:00,73.8,24.8,30.57,SE,135,11.0,13.0,16,0.00,,,0.09,meteohub,2013-06-22 14:00:00,
2013-06-22 08:05:00,73.8,24.8,30.58,SE,135,11.0,14.0,16,0.00,,,0.09,meteohub,2013-06-22 14:05:00,
2013-06-22 08:10:00,73.9,25.0,30.57,South,180,10.0,14.0,16,0.00,,,0.09,meteohub,2013-06-22 14:10:00,
2013-06-22 08:15:00,73.9,25.0,30.58,SW,225,11.0,17.0,16,0.00,,,0.09,meteohub,2013-06-22 14:15:00,
2013-06-22 08:20:00,73.9,25.0,30.58,South,180,14.0,17.0,16,0.00,,,0.09,meteohub,2013-06-22 14:20:00,
2013-06-22 08:25:00,73.6,24.6,30.58,South,180,9.0,17.0,16,0.00,,,0.09,meteohub,2013-06-22 14:25:00,
2013-06-22 08:31:00,73.8,24.8,30.58,East,90,9.0,15.0,16,0.00,,,0.09,meteohub,2013-06-22 14:31:00,
2013-06-22 08:36:00,74.1,25.0,30.58,South,180,10.0,15.0,16,0.00,,,0.09,meteohub,2013-06-22 14:36:00,
2013-06-22 08:41:00,73.8,24.8,30.59,West,270,9.0,15.0,16,0.00,,,0.09,meteohub,2013-06-22 14:41:00,
2013-06-22 08:46:00,73.9,25.0,30.58,NW,315,10.0,15.0,16,0.00,,,0.09,meteohub,2013-06-22 14:46:00,
2013-06-22 08:51:00,74.3,25.2,30.59,WSW,248,11.0,15.0,16,0.00,,,0.09,meteohub,2013-06-22 14:51:00,
2013-06-22 08:56:00,74.3,25.2,30.58,West,270,12.0,17.0,16,0.00,,,0.09,meteohub,2013-06-22 14:56:00,
2013-06-22 09:01:00,73.6,24.6,30.59,SW,225,11.0,18.0,16,0.00,,,0.09,meteohub,2013-06-22 15:01:00,
2013-06-22 09:06:00,73.8,24.8,30.59,West,270,11.0,19.0,16,0.00,,,0.09,meteohub,2013-06-22 15:06:00,
2013-06-22 09:12:00,73.9,25.0,30.59,West,270,9.0,19.0,16,0.00,,,0.09,meteohub,2013-06-22 15:12:00,
2013-06-22 09:17:00,73.9,25.0,30.59,South,180,9.0,19.0,16,0.00,,,0.09,meteohub,2013-06-22 15:17:00,
2013-06-22 09:22:00,74.1,25.0,30.59,North,0,19.0,19.0,16,0.00,,,0.09,meteohub,2013-06-22 15:22:00,
2013-06-22 09:27:00,73.9,25.0,30.59,SW,225,16.0,19.0,16,0.00,,,0.09,meteohub,2013-06-22 15:27:00,
2013-06-22 09:32:00,74.1,25.0,30.59,West,270,8.0,19.0,16,0.00,,,0.09,meteohub,2013-06-22 15:32:00,
2013-06-22 09:37:00,75.4,24.4,30.59,South,180,15.0,19.0,15,0.00,,,0.09,meteohub,2013-06-22 15:37:00,
2013-06-22 09:42:00,75.9,25.0,30.59,West,270,10.0,19.0,15,0.00,,,0.09,meteohub,2013-06-22 15:42:00,
2013-06-22 09:47:00,76.1,25.2,30.59,SW,225,9.0,19.0,15,0.00,,,0.09,meteohub,2013-06-22 15:47:00,
2013-06-22 09:52:00,75.9,25.0,30.59,West,270,13.0,19.0,15,0.00,,,0.09,meteohub,2013-06-22 15:52:00,
2013-06-22 09:57:00,75.6,24.6,30.58,West,270,21.0,23.0,15,0.00,,,0.09,meteohub,2013-06-22 15:57:00,
2013-06-22 10:02:00,75.2,24.4,30.58,West,270,23.0,23.0,15,0.00,,,0.09,meteohub,2013-06-22 16:02:00,
2013-06-22 10:07:00,75.2,24.4,30.59,West,270,23.0,25.0,15,0.00,,,0.09,meteohub,2013-06-22 16:07:00,
2013-06-22 10:12:00,75.4,24.4,30.59,West,270,14.0,25.0,15,0.00,,,0.09,meteohub,2013-06-22 16:12:00,
2013-06-22 10:17:00,75.6,24.6,30.59,West,270,12.0,25.0,15,0.00,,,0.09,meteohub,2013-06-22 16:17:00,
2013-06-22 10:22:00,76.1,25.2,30.59,NW,315,17.0,26.0,15,0.00,,,0.09,meteohub,2013-06-22 16:22:00,
2013-06-22 10:27:00,76.1,25.2,30.58,West,270,18.0,26.0,15,0.00,,,0.09,meteohub,2013-06-22 16:27:00,
2013-06-22 10:32:00,76.1,25.2,30.59,West,270,22.0,26.0,15,0.00,,,0.09,meteohub,2013-06-22 16:32:00,
2013-06-22 10:37:00,76.5,25.3,30.59,West,270,19.0,24.0,15,0.00,,,0.09,meteohub,2013-06-22 16:37:00,
2013-06-22 10:42:00,76.3,25.2,30.59,West,270,18.0,24.0,15,0.00,,,0.09,meteohub,2013-06-22 16:42:00,
2013-06-22 10:47:00,76.3,25.2,30.58,West,270,27.0,27.0,15,0.00,,,0.09,meteohub,2013-06-22 16:47:00,
2013-06-22 10:52:00,76.8,25.7,30.59,West,270,19.0,27.0,15,0.00,,,0.09,meteohub,2013-06-22 16:52:00,
2013-06-22 10:57:00,77.0,24.1,30.58,West,270,19.0,27.0,14,0.00,,,0.09,meteohub,2013-06-22 16:57:00,
2013-06-22 11:02:00,77.5,24.6,30.59,West,270,17.0,27.0,14,0.00,,,0.09,meteohub,2013-06-22 17:02:00,
2013-06-22 11:07:00,77.5,24.6,30.59,West,270,11.0,27.0,14,0.00,,,0.09,meteohub,2013-06-22 17:07:00,
2013-06-22 11:12:00,77.9,24.8,30.59,West,270,21.0,25.0,14,0.00,,,0.09,meteohub,2013-06-22 17:12:00,
2013-06-22 11:17:00,77.7,24.8,30.60,West,270,16.0,27.0,14,0.00,,,0.09,meteohub,2013-06-22 17:17:00,
2013-06-22 11:22:00,78.3,25.2,30.59,SW,225,17.0,27.0,14,0.00,,,0.09,meteohub,2013-06-22 17:22:00,
2013-06-22 11:27:00,78.6,25.5,30.59,West,270,23.0,27.0,14,0.00,,,0.09,meteohub,2013-06-22 17:27:00,
2013-06-22 11:32:00,78.4,25.3,30.59,West,270,16.0,23.0,14,0.00,,,0.09,meteohub,2013-06-22 17:32:00,
2013-06-22 11:37:00,78.8,23.7,30.59,South,180,23.0,23.0,13,0.00,,,0.09,meteohub,2013-06-22 17:37:00,
2013-06-22 11:42:00,78.6,25.5,30.59,NW,315,13.0,26.0,14,0.00,,,0.09,meteohub,2013-06-22 17:42:00,
2013-06-22 11:47:00,78.8,23.7,30.58,West,270,23.0,27.0,13,0.00,,,0.09,meteohub,2013-06-22 17:47:00,
2013-06-22 11:52:00,78.6,25.5,30.59,West,270,22.0,28.0,14,0.00,,,0.09,meteohub,2013-06-22 17:52:00,
2013-06-22 11:57:00,78.8,23.7,30.59,West,270,25.0,30.0,13,0.00,,,0.09,meteohub,2013-06-22 17:57:00,
2013-06-22 12:03:00,79.0,23.9,30.59,West,270,27.0,30.0,13,0.00,,,0.09,meteohub,2013-06-22 18:03:00,
2013-06-22 12:08:00,79.0,23.9,30.59,West,270,22.0,30.0,13,0.00,,,0.09,meteohub,2013-06-22 18:08:00,
2013-06-22 12:13:00,79.0,23.9,30.59,West,270,16.0,30.0,13,0.00,,,0.09,meteohub,2013-06-22 18:13:00,
2013-06-22 12:18:00,79.3,24.3,30.58,West,270,24.0,27.0,13,0.00,,,0.09,meteohub,2013-06-22 18:18:00,
2013-06-22 12:23:00,78.8,23.7,30.58,West,270,29.0,29.0,13,0.00,,,0.09,meteohub,2013-06-22 18:23:00,
2013-06-22 12:28:00,79.0,23.9,30.58,West,270,25.0,29.0,13,0.00,,,0.09,meteohub,2013-06-22 18:28:00,
2013-06-22 12:33:00,78.6,25.5,30.58,West,270,19.0,29.0,14,0.00,,,0.09,meteohub,2013-06-22 18:33:00,
2013-06-22 12:38:00,79.2,24.1,30.58,West,270,23.0,29.0,13,0.00,,,0.09,meteohub,2013-06-22 18:38:00,
2013-06-22 12:43:00,78.6,25.5,30.59,SW,225,17.0,29.0,14,0.00,,,0.09,meteohub,2013-06-22 18:43:00,
2013-06-22 12:48:00,78.4,25.3,30.59,North,0,20.0,28.0,14,0.00,,,0.09,meteohub,2013-06-22 18:48:00,
2013-06-22 12:53:00,79.7,24.4,30.58,West,270,15.0,28.0,13,0.00,,,0.09,meteohub,2013-06-22 18:53:00,
2013-06-22 12:58:00,81.1,23.7,30.58,West,270,26.0,28.0,12,0.00,,,0.09,meteohub,2013-06-22 18:58:00,
2013-06-22 13:03:00,80.8,23.4,30.58,NW,315,29.0,29.0,12,0.00,,,0.09,meteohub,2013-06-22 19:03:00,
2013-06-22 13:08:00,80.2,25.0,30.58,West,270,32.0,32.0,13,0.00,,,0.09,meteohub,2013-06-22 19:08:00,
2013-06-22 13:13:00,80.8,23.4,30.58,West,270,22.0,32.0,12,0.00,,,0.09,meteohub,2013-06-22 19:13:00,
2013-06-22 13:18:00,80.8,23.4,30.58,NW,315,21.0,32.0,12,0.00,,,0.09,meteohub,2013-06-22 19:18:00,
2013-06-22 13:23:00,80.8,23.4,30.58,West,270,15.0,32.0,12,0.00,,,0.09,meteohub,2013-06-22 19:23:00,
2013-06-22 13:28:00,81.0,23.5,30.58,West,270,20.0,29.0,12,0.00,,,0.09,meteohub,2013-06-22 19:28:00,
2013-06-22 13:33:00,81.5,24.1,30.58,West,270,21.0,27.0,12,0.00,,,0.09,meteohub,2013-06-22 19:33:00,
2013-06-22 13:39:00,82.4,30.2,30.58,West,270,24.0,25.0,15,0.00,,,0.09,meteohub,2013-06-22 19:39:00,
2013-06-22 13:44:00,82.2,24.6,30.57,West,270,32.0,32.0,12,0.00,,,0.09,meteohub,2013-06-22 19:44:00,
2013-06-22 13:49:00,81.9,24.3,30.58,West,270,27.0,32.0,12,0.00,,,0.09,meteohub,2013-06-22 19:49:00,
2013-06-22 13:54:00,81.9,24.3,30.57,NW,315,24.0,34.0,12,0.05,,,0.14,meteohub,2013-06-22 19:54:00,
2013-06-22 13:59:00,82.2,24.6,30.57,NW,315,25.0,34.0,12,0.05,,,0.14,meteohub,2013-06-22 19:59:00,
2013-06-22 14:04:00,82.2,24.6,30.57,SW,225,27.0,36.0,12,0.12,,,0.21,meteohub,2013-06-22 20:04:00,
2013-06-22 14:09:00,81.9,24.3,30.57,SW,225,27.0,36.0,12,0.12,,,0.21,meteohub,2013-06-22 20:09:00,
2013-06-22 14:14:00,82.0,24.4,30.57,West,270,11.0,36.0,12,0.12,,,0.21,meteohub,2013-06-22 20:14:00,
2013-06-22 14:19:00,82.8,30.4,30.56,West,270,29.0,35.0,15,0.15,,,0.25,meteohub,2013-06-22 20:19:00,
2013-06-22 14:24:00,82.6,30.2,30.57,West,270,21.0,35.0,15,0.15,,,0.25,meteohub,2013-06-22 20:24:00,
2013-06-22 14:29:00,82.8,30.4,30.56,West,270,28.0,35.0,15,0.15,,,0.25,meteohub,2013-06-22 20:29:00,
2013-06-22 14:34:00,82.6,30.2,30.56,West,270,18.0,32.0,15,0.15,,,0.25,meteohub,2013-06-22 20:34:00,
2013-06-22 14:39:00,83.7,31.1,30.56,West,270,19.0,32.0,15,0.15,,,0.25,meteohub,2013-06-22 20:39:00,
2013-06-22 14:44:00,84.6,30.2,30.56,SW,225,15.0,28.0,14,0.15,,,0.25,meteohub,2013-06-22 20:44:00,
2013-06-22 14:49:00,85.1,30.6,30.56,West,270,28.0,28.0,14,0.11,,,0.25,meteohub,2013-06-22 20:49:00,
2013-06-22 14:55:00,83.5,30.9,30.57,WSW,248,23.0,23.0,15,0.11,,,0.25,meteohub,2013-06-22 20:55:00,
2013-06-22 15:00:00,84.4,30.0,30.56,West,270,26.0,28.0,14,0.09,,,0.25,meteohub,2013-06-22 21:00:00,
2013-06-22 15:05:00,83.5,30.9,30.56,NW,315,15.0,28.0,15,0.04,,,0.25,meteohub,2013-06-22 21:05:00,
2013-06-22 15:10:00,84.4,30.0,30.56,West,270,21.0,28.0,14,0.04,,,0.25,meteohub,2013-06-22 21:10:00,
2013-06-22 15:15:00,84.4,30.0,30.56,NW,315,26.0,26.0,14,0.00,,,0.25,meteohub,2013-06-22 21:15:00,
2013-06-22 15:20:00,84.0,31.5,30.55,West,270,31.0,31.0,15,0.00,,,0.25,meteohub,2013-06-22 21:20:00,
2013-06-22 15:25:00,84.0,31.5,30.55,NW,315,24.0,30.0,15,0.00,,,0.25,meteohub,2013-06-22 21:25:00,
2013-06-22 15:30:00,84.0,31.5,30.56,West,270,27.0,31.0,15,0.00,,,0.25,meteohub,2013-06-22 21:30:00,
2013-06-22 15:35:00,83.8,31.3,30.56,West,270,21.0,31.0,15,0.00,,,0.25,meteohub,2013-06-22 21:35:00,
2013-06-22 15:40:00,84.0,31.5,30.56,West,270,28.0,29.0,15,0.00,,,0.25,meteohub,2013-06-22 21:40:00,
2013-06-22 15:45:00,84.2,29.8,30.55,West,270,30.0,30.0,14,0.00,,,0.25,meteohub,2013-06-22 21:45:00,
2013-06-22 15:50:00,85.3,30.7,30.55,West,270,28.0,30.0,14,0.00,,,0.25,meteohub,2013-06-22 21:50:00,
2013-06-22 15:55:00,84.7,30.2,30.56,West,270,23.0,30.0,14,0.00,,,0.25,meteohub,2013-06-22 21:55:00,
2013-06-22 16:00:00,84.2,29.8,30.55,West,270,23.0,30.0,14,0.00,,,0.25,meteohub,2013-06-22 22:00:00,
2013-06-22 16:05:00,84.2,29.8,30.55,West,270,23.0,29.0,14,0.00,,,0.25,meteohub,2013-06-22 22:05:00,
2013-06-22 16:10:00,84.6,30.2,30.55,NW,315,17.0,30.0,14,0.01,,,0.25,meteohub,2013-06-22 22:10:00,
2013-06-22 16:16:00,85.1,30.6,30.55,West,270,21.0,30.0,14,0.01,,,0.26,meteohub,2013-06-22 22:16:00,
2013-06-22 16:21:00,84.7,30.2,30.56,NW,315,30.0,32.0,14,0.01,,,0.26,meteohub,2013-06-22 22:21:00,
2013-06-22 16:26:00,84.6,30.2,30.55,West,270,20.0,34.0,14,0.01,,,0.26,meteohub,2013-06-22 22:26:00,
2013-06-22 16:31:00,84.0,31.5,30.54,West,270,36.0,36.0,15,0.01,,,0.26,meteohub,2013-06-22 22:31:00,
2013-06-22 16:36:00,84.2,29.8,30.55,West,270,21.0,37.0,14,0.19,,,0.44,meteohub,2013-06-22 22:36:00,
2013-06-22 16:41:00,83.8,31.3,30.55,NW,315,29.0,37.0,15,0.19,,,0.44,meteohub,2013-06-22 22:41:00,
2013-06-22 16:46:00,83.7,31.1,30.55,West,270,15.0,37.0,15,0.19,,,0.44,meteohub,2013-06-22 22:46:00,
2013-06-22 16:51:00,84.6,30.2,30.55,West,270,25.0,29.0,14,0.19,,,0.44,meteohub,2013-06-22 22:51:00,
2013-06-22 16:56:00,84.6,30.2,30.55,West,270,22.0,29.0,14,0.19,,,0.44,meteohub,2013-06-22 22:56:00,
2013-06-22 17:01:00,84.0,31.5,30.55,WSW,248,16.0,25.0,15,0.19,,,0.44,meteohub,2013-06-22 23:01:00,
2013-06-22 17:06:00,85.3,30.7,30.54,NW,315,18.0,25.0,14,0.19,,,0.44,meteohub,2013-06-22 23:06:00,
2013-06-22 17:12:00,85.1,30.6,30.54,West,270,20.0,22.0,14,0.18,,,0.44,meteohub,2013-06-22 23:12:00,
2013-06-22 17:17:00,85.1,30.6,30.54,West,270,12.0,25.0,14,0.18,,,0.44,meteohub,2013-06-22 23:17:00,
2013-06-22 17:22:00,85.3,30.7,30.54,West,270,25.0,25.0,14,0.18,,,0.44,meteohub,2013-06-22 23:22:00,
2013-06-22 17:27:00,84.2,29.8,30.54,West,270,13.0,28.0,14,0.18,,,0.44,meteohub,2013-06-22 23:27:00,
2013-06-22 17:32:00,84.9,30.4,30.54,WSW,248,9.0,28.0,14,0.18,,,0.44,meteohub,2013-06-22 23:32:00,
2013-06-22 17:37:00,86.2,29.7,30.54,NW,315,15.0,28.0,13,0.00,,,0.44,meteohub,2013-06-22 23:37:00,
2013-06-22 17:42:00,85.8,31.1,30.53,West,270,21.0,21.0,14,0.00,,,0.44,meteohub,2013-06-22 23:42:00,
2013-06-22 17:47:00,85.3,30.7,30.53,West,270,16.0,23.0,14,0.00,,,0.44,meteohub,2013-06-22 23:47:00,
2013-06-22 17:52:00,85.1,30.6,30.53,NNW,338,9.0,23.0,14,0.00,,,0.44,meteohub,2013-06-22 23:52:00,
2013-06-22 17:57:00,84.7,30.2,30.53,West,270,19.0,23.0,14,0.00,,,0.44,meteohub,2013-06-22 23:57:00,
2013-06-22 18:02:00,84.9,30.4,30.53,West,270,21.0,24.0,14,0.00,,,0.44,meteohub,2013-06-23 00:02:00,
2013-06-22 18:07:00,84.9,30.4,30.53,West,270,21.0,24.0,14,0.00,,,0.00,meteohub,2013-06-23 00:07:00,
2013-06-22 18:12:00,84.6,30.2,30.53,West,270,15.0,24.0,14,0.00,,,0.00,meteohub,2013-06-23 00:12:00,
2013-06-22 18:17:00,84.9,30.4,30.53,West,270,23.0,23.0,14,0.00,,,0.00,meteohub,2013-06-23 00:17:00,
2013-06-22 18:22:00,84.7,30.2,30.53,West,270,17.0,23.0,14,0.00,,,0.00,meteohub,2013-06-23 00:22:00,
2013-06-22 18:27:00,84.9,30.4,30.53,West,270,15.0,23.0,14,0.00,,,0.00,meteohub,2013-06-23 00:27:00,
2013-06-22 18:32:00,84.6,30.2,30.53,West,270,17.0,23.0,14,0.00,,,0.00,meteohub,2013-06-23 00:32:00,
2013-06-22 18:37:00,84.2,29.8,30.53,West,270,15.0,24.0,14,0.00,,,0.00,meteohub,2013-06-23 00:37:00,
2013-06-22 18:42:00,84.2,29.8,30.53,West,270,14.0,24.0,14,0.00,,,0.00,meteohub,2013-06-23 00:42:00,
2013-06-22 18:47:00,84.2,29.8,30.53,West,270,21.0,24.0,14,0.00,,,0.00,meteohub,2013-06-23 00:47:00,
2013-06-22 18:52:00,84.6,30.2,30.53,West,270,11.0,23.0,14,0.00,,,0.00,meteohub,2013-06-23 00:52:00,
2013-06-22 18:57:00,84.9,30.4,30.53,West,270,8.0,23.0,14,0.00,,,0.00,meteohub,2013-06-23 00:57:00,
2013-06-22 19:02:00,85.5,30.9,30.53,South,180,11.0,23.0,14,0.00,,,0.00,meteohub,2013-06-23 01:02:00,
2013-06-22 19:07:00,85.1,30.6,30.53,South,180,6.0,11.0,14,0.00,,,0.00,meteohub,2013-06-23 01:07:00,
2013-06-22 19:12:00,85.1,30.6,30.53,SW,225,10.0,11.0,14,0.00,,,0.00,meteohub,2013-06-23 01:12:00,
2013-06-22 19:17:00,85.1,30.6,30.53,West,270,15.0,15.0,14,0.00,,,0.00,meteohub,2013-06-23 01:17:00,
2013-06-22 19:22:00,84.0,31.5,30.53,West,270,14.0,20.0,15,0.00,,,0.00,meteohub,2013-06-23 01:22:00,
2013-06-22 19:27:00,83.7,31.1,30.53,West,270,12.0,20.0,15,0.00,,,0.00,meteohub,2013-06-23 01:27:00,
2013-06-22 19:32:00,83.7,31.1,30.53,West,270,11.0,20.0,15,0.00,,,0.00,meteohub,2013-06-23 01:32:00,
2013-06-22 19:37:00,83.8,31.3,30.53,West,270,9.0,16.0,15,0.00,,,0.00,meteohub,2013-06-23 01:37:00,
2013-06-22 19:42:00,83.5,30.9,30.53,SW,225,17.0,17.0,15,0.00,,,0.00,meteohub,2013-06-23 01:42:00,
2013-06-22 19:47:00,83.1,30.7,30.54,West,270,13.0,20.0,15,0.00,,,0.00,meteohub,2013-06-23 01:47:00,
2013-06-22 19:52:00,82.8,30.4,30.53,West,270,14.0,21.0,15,0.00,,,0.00,meteohub,2013-06-23 01:52:00,
2013-06-22 19:57:00,82.4,30.2,30.54,West,270,17.0,22.0,15,0.00,,,0.00,meteohub,2013-06-23 01:57:00,
2013-06-22 20:02:00,82.0,24.4,30.54,West,270,13.0,22.0,12,0.00,,,0.00,meteohub,2013-06-23 02:02:00,
2013-06-22 20:07:00,82.0,24.4,30.54,West,270,13.0,22.0,12,0.00,,,0.00,meteohub,2013-06-23 02:07:00,
2013-06-22 20:12:00,80.6,23.4,30.54,West,270,12.0,21.0,12,0.00,,,0.00,meteohub,2013-06-23 02:12:00,
2013-06-22 20:17:00,80.8,23.4,30.54,West,270,9.0,15.0,12,0.00,,,0.00,meteohub,2013-06-23 02:17:00,
2013-06-22 20:22:00,81.1,23.7,30.54,West,270,10.0,15.0,12,0.00,,,0.00,meteohub,2013-06-23 02:22:00,
2013-06-22 20:27:00,81.0,23.5,30.54,West,270,8.0,14.0,12,0.00,,,0.00,meteohub,2013-06-23 02:27:00,
2013-06-22 20:32:00,80.6,23.4,30.54,WNW,293,10.0,12.0,12,0.00,,,0.00,meteohub,2013-06-23 02:32:00,
2013-06-22 20:37:00,80.2,25.0,30.54,West,270,6.0,11.0,13,0.00,,,0.00,meteohub,2013-06-23 02:37:00,
2013-06-22 20:42:00,79.7,24.4,30.54,West,270,4.0,11.0,13,0.00,,,0.00,meteohub,2013-06-23 02:42:00,
2013-06-22 20:47:00,79.3,24.3,30.54,South,180,4.0,11.0,13,0.00,,,0.00,meteohub,2013-06-23 02:47:00,
2013-06-22 20:52:00,78.6,25.5,30.54,South,180,2.0,8.0,14,0.00,,,0.00,meteohub,2013-06-23 02:52:00,
2013-06-22 20:57:00,78.1,25.0,30.54,South,180,4.0,4.0,14,0.00,,,0.00,meteohub,2013-06-23 02:57:00,
2013-06-22 21:02:00,77.4,24.4,30.54,South,180,4.0,4.0,14,0.00,,,0.00,meteohub,2013-06-23 03:02:00,
2013-06-22 21:07:00,76.8,25.7,30.54,South,180,4.0,5.0,15,0.00,,,0.00,meteohub,2013-06-23 03:07:00,
2013-06-22 21:12:00,76.6,25.5,30.54,South,180,4.0,6.0,15,0.00,,,0.00,meteohub,2013-06-23 03:12:00,
2013-06-22 21:17:00,76.3,25.2,30.55,SSE,158,5.0,6.0,15,0.00,,,0.00,meteohub,2013-06-23 03:17:00,
2013-06-22 21:22:00,75.7,24.8,30.55,East,90,5.0,6.0,15,0.00,,,0.00,meteohub,2013-06-23 03:22:00,
2013-06-22 21:27:00,75.2,24.4,30.55,East,90,3.0,6.0,15,0.00,,,0.00,meteohub,2013-06-23 03:27:00,
2013-06-22 21:32:00,74.8,25.7,30.55,SE,135,4.0,6.0,16,0.00,,,0.00,meteohub,2013-06-23 03:32:00,
2013-06-22 21:37:00,74.5,25.3,30.55,East,90,4.0,6.0,16,0.00,,,0.00,meteohub,2013-06-23 03:37:00,
2013-06-22 21:42:00,74.3,25.2,30.56,East,90,3.0,7.0,16,0.00,,,0.00,meteohub,2013-06-23 03:42:00,
2013-06-22 21:47:00,74.3,25.2,30.56,SE,135,3.0,7.0,16,0.00,,,0.00,meteohub,2013-06-23 03:47:00,
2013-06-22 21:52:00,74.3,25.2,30.56,NE,45,5.0,6.0,16,0.00,,,0.00,meteohub,2013-06-23 03:52:00,
2013-06-22 21:57:00,74.1,25.0,30.57,North,0,9.0,9.0,16,0.00,,,0.00,meteohub,2013-06-23 03:57:00,
2013-06-22 22:01:00,74.1,25.0,30.57,East,90,4.0,9.0,16,0.00,,,0.00,meteohub,2013-06-23 04:01:00,
2013-06-22 22:02:00,74.1,25.0,30.57,East,90,4.0,9.0,16,0.00,,,0.00,meteohub,2013-06-23 04:02:00,
2013-06-22 22:04:00,74.1,25.0,30.57,East,90,4.0,9.0,16,0.00,,,0.00,meteohub,2013-06-23 04:04:00,
2013-06-22 22:06:00,74.1,25.0,30.57,East,90,4.0,9.0,16,0.00,,,0.00,meteohub,2013-06-23 04:06:00,
2013-06-22 22:11:00,74.5,25.3,30.57,NW,315,3.0,9.0,16,0.00,,,0.00,meteohub,2013-06-23 04:11:00,
2013-06-22 22:16:00,74.3,25.2,30.58,NE,45,7.0,9.0,16,0.00,,,0.00,meteohub,2013-06-23 04:16:00,
2013-06-22 22:22:00,73.9,25.0,30.58,NE,45,6.0,10.0,16,0.00,,,0.00,meteohub,2013-06-23 04:22:00,
2013-06-22 22:27:00,73.8,24.8,30.58,North,0,6.0,10.0,16,0.00,,,0.00,meteohub,2013-06-23 04:27:00,
2013-06-22 22:32:00,73.8,24.8,30.58,NE,45,8.0,11.0,16,0.00,,,0.00,meteohub,2013-06-23 04:32:00,
2013-06-22 22:37:00,73.6,24.6,30.58,North,0,5.0,11.0,16,0.00,,,0.00,meteohub,2013-06-23 04:37:00,
2013-06-22 22:42:00,73.2,19.4,30.58,SE,135,3.0,11.0,13,0.00,,,0.00,meteohub,2013-06-23 04:42:00,
2013-06-22 22:47:00,72.5,18.9,30.58,East,90,8.0,8.0,13,0.00,,,0.00,meteohub,2013-06-23 04:47:00,
2013-06-22 22:52:00,72.1,18.5,30.58,East,90,8.0,8.0,13,0.00,,,0.00,meteohub,2013-06-23 04:52:00,
2013-06-22 22:57:00,71.8,18.3,30.59,East,90,7.0,8.0,13,0.00,,,0.00,meteohub,2013-06-23 04:57:00,
2013-06-22 23:02:00,71.4,19.8,30.58,East,90,4.0,8.0,14,0.00,,,0.00,meteohub,2013-06-23 05:02:00,
2013-06-22 23:07:00,71.1,19.4,30.59,East,90,6.0,8.0,14,0.00,,,0.00,meteohub,2013-06-23 05:07:00,
2013-06-22 23:12:00,70.9,19.2,30.58,East,90,6.0,8.0,14,0.00,,,0.00,meteohub,2013-06-23 05:12:00,
2013-06-22 23:17:00,70.5,20.7,30.58,ENE,68,7.0,9.0,15,0.00,,,0.00,meteohub,2013-06-23 05:17:00,
2013-06-22 23:22:00,70.2,20.3,30.58,NE,45,8.0,9.0,15,0.00,,,0.00,meteohub,2013-06-23 05:22:00,
2013-06-22 23:27:00,69.8,20.1,30.58,East,90,8.0,10.0,15,0.00,,,0.00,meteohub,2013-06-23 05:27:00,
2013-06-22 23:32:00,69.8,20.1,30.58,East,90,8.0,10.0,15,0.00,,,0.00,meteohub,2013-06-23 05:32:00,
2013-06-22 23:37:00,69.6,21.4,30.58,East,90,9.0,10.0,16,0.00,,,0.00,meteohub,2013-06-23 05:37:00,
2013-06-22 23:42:00,69.4,21.2,30.58,East,90,9.0,9.0,16,0.00,,,0.00,meteohub,2013-06-23 05:42:00,
2013-06-22 23:47:00,69.3,21.2,30.58,East,90,12.0,12.0,16,0.00,,,0.00,meteohub,2013-06-23 05:47:00,
2013-06-22 23:52:00,69.1,21.0,30.58,East,90,11.0,12.0,16,0.00,,,0.00,meteohub,2013-06-23 05:52:00,
2013-06-22 23:57:00,69.3,21.2,30.58,East,90,5.0,12.0,16,0.00,,,0.00,meteohub,2013-06-23 05:57:00,